TimeEDT,TemperatureF,Dew PointF,Humidity,Sea Level PressureIn,VisibilityMPH,Wind Direction,Wind SpeedMPH,Gust SpeedMPH,PrecipitationIn,Events,Conditions,WindDirDegrees,DateUTC
12:07 AM,78.8,73.4,83,30.11,10.0,SE,8.1,-,N/A,,Mostly Cloudy,130,2013-07-16 04:07:00
12:32 AM,78.8,71.6,78,30.11,10.0,SE,8.1,-,N/A,,Overcast,130,2013-07-16 04:32:00
12:53 AM,79.0,73.0,82,30.11,10.0,ESE,8.1,-,N/A,,Overcast,120,2013-07-16 04:53:00
1:11 AM,78.8,71.6,78,30.10,10.0,ESE,9.2,-,N/A,,Overcast,110,2013-07-16 05:11:00
1:22 AM,78.8,71.6,78,30.10,10.0,ESE,12.7,19.6,N/A,,Overcast,120,2013-07-16 05:22:00
1:53 AM,79.0,73.0,82,30.10,10.0,ESE,9.2,-,N/A,,Mostly Cloudy,120,2013-07-16 05:53:00
2:53 AM,78.1,73.0,84,30.09,10.0,ESE,10.4,-,N/A,,Partly Cloudy,110,2013-07-16 06:53:00
3:53 AM,77.0,73.0,88,30.09,10.0,ESE,9.2,-,N/A,,Clear,110,2013-07-16 07:53:00
4:53 AM,77.0,73.0,88,30.09,10.0,East,6.9,-,N/A,,Clear,100,2013-07-16 08:53:00
5:53 AM,77.0,73.9,90,30.09,10.0,East,8.1,16.1,N/A,,Scattered Clouds,80,2013-07-16 09:53:00
6:53 AM,77.0,73.0,88,30.11,10.0,East,8.1,-,N/A,,Partly Cloudy,80,2013-07-16 10:53:00
7:53 AM,78.1,73.9,87,30.12,10.0,ENE,10.4,-,N/A,,Clear,70,2013-07-16 11:53:00
8:53 AM,80.1,73.0,79,30.13,10.0,East,9.2,-,N/A,,Partly Cloudy,80,2013-07-16 12:53:00
9:53 AM,82.0,73.0,74,30.14,10.0,East,9.2,-,N/A,,Partly Cloudy,90,2013-07-16 13:53:00
10:53 AM,84.9,73.0,67,30.15,10.0,East,10.4,18.4,N/A,,Scattered Clouds,90,2013-07-16 14:53:00
11:53 AM,84.9,71.1,63,30.15,10.0,East,10.4,18.4,N/A,,Scattered Clouds,90,2013-07-16 15:53:00
12:53 PM,87.1,71.1,59,30.14,10.0,East,13.8,-,N/A,,Clear,80,2013-07-16 16:53:00
1:53 PM,89.1,71.1,55,30.12,10.0,East,12.7,-,N/A,,Clear,100,2013-07-16 17:53:00
2:53 PM,89.1,70.0,53,30.11,10.0,East,12.7,-,N/A,,Scattered Clouds,100,2013-07-16 18:53:00
3:16 PM,80.6,71.6,74,30.13,10.0,SE,24.2,42.6,N/A,Thunderstorm,Mostly Cloudy,130,2013-07-16 19:16:00
3:44 PM,77.0,71.6,83,30.13,10.0,SE,18.4,27.6,0.00,Rain-Thunderstorm,Light Rain,140,2013-07-16 19:44:00
3:53 PM,79.0,72.0,79,30.14,10.0,ESE,19.6,25.3,0.00,Thunderstorm,Mostly Cloudy,120,2013-07-16 19:53:00
4:05 PM,78.8,69.8,74,30.14,10.0,ESE,17.3,28.8,N/A,,Mostly Cloudy,120,2013-07-16 20:05:00
4:53 PM,77.0,70.0,79,30.14,10.0,East,8.1,18.4,0.00,,Clear,100,2013-07-16 20:53:00
5:53 PM,77.0,71.1,82,30.11,10.0,East,9.2,-,0.00,,Partly Cloudy,100,2013-07-16 21:53:00
6:53 PM,78.1,70.0,76,30.12,10.0,ESE,8.1,-,N/A,,Partly Cloudy,110,2013-07-16 22:53:00
7:53 PM,78.1,69.1,74,30.14,10.0,East,6.9,-,N/A,,Partly Cloudy,100,2013-07-16 23:53:00
8:53 PM,78.1,71.1,79,30.14,10.0,East,6.9,-,N/A,,Clear,90,2013-07-17 00:53:00
9:53 PM,77.0,72.0,84,30.15,10.0,ENE,9.2,-,N/A,,Clear,60,2013-07-17 01:53:00
10:53 PM,77.0,71.1,82,30.16,10.0,East,9.2,-,N/A,,Clear,80,2013-07-17 02:53:00
11:53 PM,77.0,72.0,84,30.16,10.0,East,8.1,-,N/A,,Clear,80,2013-07-17 03:53:00